#timestamp,LO_Frequency,Hit 
1502654415.1,286046993.5,N
1502654435.9,286046994.9,N
1502654455.7,286046997.8,N
1502654475.5,286046999.6,N
1502654495.4,286046996.7,N
1502654515.2,286046996.9,N
1502654535.0,286046997.1,N
1502654535.9,286046997.1,N
1502654555.8,286046999.1,N
1502654575.6,286047000.4,N
1502654595.4,286047000.4,N
1502654615.2,286047002.6,N
1502654635.1,286047002.3,N
1502654636.0,286047002.3,N
1502654655.8,286047002.8,N
1502654675.6,286047003.9,N
1502654695.5,286047003.9,N
1502654715.3,286047003.1,N
1502654735.1,286047007.6,N
1502654755.9,286047006.0,N
1502654775.7,286047003.9,N
1502654795.5,286047004.1,N
1502654815.4,286047003.5,N
1502654835.2,286047001.3,N
1502654855.0,286047002.5,N
1502654855.9,286047002.5,N
1502654875.8,286047001.8,N
1502654895.6,286047001.9,N
1502654915.4,286047001.8,N
1502654935.2,286047002.9,N
1502654955.1,286047004.6,N
1502654956.0,286047004.6,N
1502654975.8,286047007.3,N
1502654995.6,286047003.5,N
1502655015.5,286047003.3,N
1502655035.3,286047005.5,N
1502655055.1,286047004.3,N
1502655075.9,286047003.9,N
1502655095.7,286047004.2,N
1502655115.5,286047001.8,N
1502655135.4,286047004.2,N
1502655155.2,286047002.5,N
1502655175.0,286047003.4,N
1502655175.9,286047003.4,N
1502655195.8,286047001.6,N
1502655215.6,286047003.9,N
1502655235.4,286047001.8,N
1502655255.3,286047004.3,N
1502655275.1,286047002.1,N
1502655276.0,286047002.1,N
1502655295.8,286047001.8,N
1502655315.7,286047003.6,N
1502655335.5,286047003.3,N
1502655355.3,286047004.0,N
1502655375.1,286047003.7,N
1502655395.9,286047005.8,P
1502655415.7,286047000.1,N
1502655435.6,286046998.9,N
1502655455.4,286046995.0,N
1502655475.2,286046998.5,N
1502655495.0,286047000.4,N
1502655495.9,286047000.4,N
1502655515.8,286047002.1,N
1502655535.6,286047000.9,N
1502655555.4,286047002.5,N
1502655575.3,286046999.7,N
1502655595.1,286047003.6,N
1502655615.8,286047000.3,N
1502655635.7,286047002.3,N
1502655655.5,286047003.9,N
1502655675.3,286047001.5,N
1502655695.2,286047002.1,N
1502655715.9,286047001.9,N
1502655735.7,286047003.6,N
1502655755.6,286047002.9,N
1502655775.4,286047002.2,N
1502655795.2,286046999.9,N
1502655815.0,286047002.5,N
1502655816.0,286047002.5,N
1502655835.8,286047002.1,N
1502655855.6,286047002.4,N
1502655875.4,286047002.6,N
1502655895.3,286047000.5,N
1502655915.1,286046998.1,N
1502655935.8,286046998.5,N
1502655955.7,286047002.6,N
1502655975.5,286047001.8,N
1502655995.3,286047004.0,N
1502656015.2,286047004.2,N
1502656035.9,286047004.1,N
1502656055.7,286047006.0,P
1502656075.6,286047004.4,N
1502656095.4,286047000.0,N
1502656115.2,286047000.9,N
1502656135.1,286047001.0,N
1502656136.0,286047001.0,N
1502656155.8,286047001.0,N
1502656175.6,286047000.9,N
1502656195.5,286047000.0,N
1502656215.3,286047000.5,N
1502656235.1,286047001.3,N
1502656255.9,286046998.2,N
1502656275.7,286047002.4,N
1502656295.5,286046998.2,N
1502656315.3,286047001.0,N
1502656335.2,286047002.0,N
1502656355.0,286047001.9,N
1502656355.9,286047001.9,N
1502656375.7,286047000.0,N
1502656395.6,286047001.2,N
1502656415.4,286046999.4,N
1502656435.2,286046998.2,N
1502656455.1,286046999.2,N
1502656456.0,286046999.2,N
1502656475.8,286046998.2,N
1502656495.6,286046999.0,N
1502656515.5,286046999.1,N
1502656535.3,286046996.7,N
1502656555.1,286046994.9,N
1502656575.9,286046993.4,P
1502656595.7,286046996.0,N
1502656615.5,286046995.8,N
1502656635.4,286046993.5,N
1502656655.2,286046993.4,N
1502656675.0,286046992.1,P
1502656675.9,286046992.1,P
1502656695.8,286046999.5,N
1502656715.6,286047000.7,N
1502656735.4,286047000.1,N
1502656755.3,286047002.6,N
1502656775.1,286047001.6,N
1502656776.0,286047001.6,N
1502656795.8,286047002.0,N
1502656815.7,286047002.3,N
1502656835.5,286047002.6,N
1502656855.3,286047002.7,N
1502656875.2,286046999.8,N
1502656895.9,286047000.7,N
1502656915.7,286047000.3,N
1502656935.5,286047005.5,N
1502656955.4,286047007.0,N
1502656975.2,286047006.2,N
1502656995.0,286047010.8,N
1502656995.9,286047010.8,N
1502657015.8,286047006.7,N
1502657035.6,286047007.1,N
1502657055.4,286047004.5,N
1502657075.3,286047008.4,N
1502657095.1,286047006.9,N
1502657096.0,286047006.9,N
1502657115.8,286047005.6,N
1502657135.7,286047002.9,N
1502657155.5,286047003.8,N
1502657175.3,286047005.6,N
1502657195.1,286047002.2,N
1502657215.9,286046999.9,N
1502657235.7,286047000.6,N
1502657255.5,286047002.3,N
1502657275.4,286047001.6,N
1502657295.2,286047001.6,N
1502657315.0,286047002.9,N
1502657315.9,286047002.9,N
1502657335.8,286047004.8,N
1502657355.6,286047007.8,N
1502657375.4,286047007.9,N
1502657395.3,286047009.2,N
1502657415.1,286047006.4,N
1502657416.0,286047006.4,N
1502657435.8,286047005.1,N
1502657455.7,286047003.0,N
1502657475.5,286047005.2,N
1502657495.3,286047006.9,N
1502657515.2,286047005.3,N
1502657535.9,286047003.6,N
1502657555.7,286047001.4,N
1502657575.6,286046998.6,N
1502657595.4,286047000.2,N
1502657615.2,286047004.3,N
1502657635.0,286047004.4,N
1502657636.0,286047004.4,N
1502657655.8,286047005.3,N
1502657675.6,286047005.7,N
1502657695.4,286047003.2,N
1502657715.3,286047006.0,N
1502657735.1,286047004.6,N
1502657755.8,286047007.2,N
1502657775.7,286047008.8,P
1502657795.5,286047005.2,N
1502657815.3,286047006.2,P
1502657835.2,286047005.2,P
1502657855.0,286046999.2,N
1502657855.9,286046999.2,N
1502657875.8,286047001.0,N
1502657895.6,286046999.9,N
1502657915.4,286046998.7,N
1502657935.2,286046998.1,N
1502657955.1,286047000.3,N
1502657956.0,286047000.3,N
1502657975.8,286046998.3,N
1502657995.6,286046998.3,N
